sat.trackr.live / text

‹ back to catalog

STARLINK-2041

NORAD 47657 · 2021-012AP

PAYLOAD ACTIVE UNKNOWN

§ Identity

Operator
Country
US
Launch date
2021-02-16
Launch site
AFETR
Launch vehicle
Mass (kg)
RCS (m²)

Purposes: comms

External: N2YO · Heavens-Above · Gunter

§ Orbital elements

Epoch: 2026-05-25T00:29:56.013216Z

Period
91.52 min
Inclination
53.1576°
Eccentricity
0.0002680
Mean motion
15.73350093 rev/d
Perigee alt
347.5 km
Apogee alt
351.1 km
Semi-major
6,727.5 km
B*
6.7147e-4
RAAN
52.9454°
Arg perigee
151.9934°
Mean anomaly
208.1230°
Rev number
29,201

§ Raw data

STARLINK-20411 47657U 21012AP  26145.02078719  .00095320  00000+0  67147-3 0  99932 47657  53.1576  52.9454 0002680 151.9934 208.1230 15.73350093292011

JSON: /api/v1/satellites/47657 · /tle

For live sub-satellite position, see the globe view (requires WebGL).

§ Visibility from observer

Set your observer location to see the next 7 days of passes ≥ 10°. The values pass through the URL so the page stays shareable.

No JS? Fill the form by hand. The geolocation button needs JavaScript.